GW6484 Weather Reports


time (UTC)temp
C
wind
direction
speed
KPH
gust
KPH
rain 1hr
cm
rain 24hr
cm
rain mn
cm
humidity
%
barometer
mb
20260509224112 30 74 4.8 6.4 0.00 0.94 0.94 75 1012.1
20260509223609 30 72 6.4 8.0 0.00 0.94 0.94 75 1012.4
20260509223106 30 77 6.4 8.0 0.00 0.94 0.94 75 1012.4
20260509222602 30 73 6.4 8.0 0.00 0.94 0.94 75 1012.4
20260509222058 30 76 4.8 6.4 0.00 0.91 0.91 75 1012.4
20260509221554 30 79 6.4 8.0 0.00 0.91 0.91 76 1012.4
20260509221050 30 86 6.4 8.0 0.00 0.91 0.91 76 1012.4
20260509220546 29 70 4.8 6.4 0.00 0.91 0.91 78 1012.4
20260509220043 28 73 4.8 6.4 0.00 0.91 0.91 79 1012.7
20260509215537 28 78 6.4 8.0 0.00 0.91 0.91 81 1012.4
20260509215035 28 88 8.0 9.7 0.00 0.91 0.91 80 1012.4
20260509214532 28 101 8.0 14.5 0.00 0.91 0.91 81 1012.7
20260509214029 28 97 9.7 16.1 0.00 0.91 0.91 81 1012.7
20260509213525 28 95 3.2 6.4 0.00 0.91 0.91 83 1012.7
20260509213022 28 120 1.6 8.0 0.00 0.91 0.91 83 1012.4
20260509212520 28 106 1.6 6.4 0.00 0.91 0.91 84 1012.4
20260509212016 28 98 8.0 14.5 0.00 0.91 0.91 85 1012.4
20260509211512 28 77 0.0 8.0 0.00 0.91 0.91 85 1012.4
20260509211009 28 97 3.2 11.3 0.00 0.91 0.91 86 1012.1
20260509210506 28 94 1.6 12.9 0.00 0.91 0.91 86 1012.1
20260509210002 28 92 0.0 4.8 0.00 0.91 0.91 86 1012.1
20260509205456 28 93 4.8 8.0 0.00 0.91 0.91 85 1012.1
20260509204952 28 82 4.8 8.0 0.00 0.91 0.91 85 1011.7
20260509204448 28 87 6.4 8.0 0.00 0.91 0.91 85 1011.7
20260509203945 28 80 4.8 6.4 0.00 0.91 0.91 85 1011.4
20260509203441 28 80 3.2 6.4 0.00 0.91 0.91 86 1011.4
20260509202939 27 88 3.2 6.4 0.00 0.91 0.91 86 1011.4
20260509202435 27 81 6.4 8.0 0.00 0.91 0.91 86 1011.4
20260509201930 27 79 4.8 8.0 0.00 0.91 0.91 86 1011.4
20260509201425 27 82 6.4 8.0 0.00 0.91 0.91 87 1011.0
20260509200922 27 86 6.4 8.0 0.00 0.91 0.91 87 1011.0
20260509200422 27 80 4.8 6.4 0.00 0.91 0.91 86 1011.4
20260509195919 27 89 6.4 8.0 0.00 0.91 0.91 86 1011.4
20260509195415 27 87 6.4 9.7 0.00 0.91 0.91 87 1011.4
20260509194914 27 85 8.0 9.7 0.00 0.91 0.91 87 1011.4
20260509194410 27 87 6.4 9.7 0.00 0.91 0.91 88 1011.0
20260509193908 26 91 8.0 9.7 0.00 0.91 0.91 88 1011.0
20260509193407 26 89 8.0 9.7 0.00 0.91 0.91 89 1011.0
20260509192903 26 82 6.4 9.7 0.00 0.91 0.91 90 1011.0
20260509192359 26 80 6.4 9.7 0.00 0.91 0.91 91 1011.0
20260509191855 26 82 3.2 6.4 0.00 0.91 0.91 91 1011.0
20260509191351 26 68 0.0 3.2 0.00 0.91 0.91 92 1010.7
20260509190847 26 73 0.0 3.2 0.00 0.91 0.91 92 1010.7
20260509190344 26 65 0.0 4.8 0.00 0.91 0.91 92 1010.7
20260509185841 26 63 0.0 0.0 0.00 0.91 0.91 92 1010.7
20260509185338 26 67 0.0 0.0 0.00 0.91 0.91 92 1010.7
20260509184835 26 82 3.2 8.0 0.00 0.91 0.91 92 1010.7
20260509184332 26 83 1.6 6.4 0.00 0.91 0.91 92 1010.7
20260509183829 26 83 1.6 6.4 0.00 0.91 0.91 93 1010.7
20260509183324 26 95 4.8 9.7 0.00 0.91 0.91 93 1010.7
20260509182820 25 32 0.0 0.0 0.00 0.91 0.91 93 1010.7
20260509182317 25 15 0.0 3.2 0.00 0.91 0.91 93 1011.0
20260509181814 25 68 0.0 0.0 0.00 0.91 0.91 93 1011.0
20260509181312 25 57 0.0 0.0 0.00 0.91 0.91 93 1011.0
20260509180810 25 84 0.0 0.0 0.00 0.91 0.91 93 1011.0
20260509180305 25 110 0.0 0.0 0.00 0.91 0.91 93 1011.0
20260509175802 25 43 0.0 0.0 0.00 0.91 0.91 93 1011.0
20260509175258 25 39 0.0 0.0 0.00 0.91 0.91 93 1010.7
20260509174754 25 79 0.0 0.0 0.00 0.91 0.91 93 1011.0
20260509174250 25 56 0.0 0.0 0.00 0.91 0.91 93 1011.0
20260509173746 25 66 0.0 0.0 0.00 0.91 0.91 93 1011.0
20260509173242 25 83 0.0 0.0 0.00 0.91 0.91 92 1011.0
20260509172738 25 64 0.0 0.0 0.00 0.91 0.91 92 1010.7
20260509172235 25 47 0.0 0.0 0.00 0.91 0.91 92 1010.7
20260509171730 25 51 0.0 0.0 0.00 0.91 0.91 92 1010.7
20260509171226 26 354 0.0 0.0 1.19 0.89 0.89 92 1010.7
20260509170723 26 74 0.0 0.0 0.00 0.89 0.89 92 1010.7
20260509170219 26 58 0.0 0.0 0.00 0.89 0.89 92 1011.0
20260509165718 26 59 0.0 0.0 0.00 0.89 0.89 92 1010.7
20260509165213 26 47 0.0 0.0 0.00 0.86 0.86 92 1010.7
20260509164709 26 35 0.0 0.0 0.00 0.86 0.86 92 1010.7
20260509164205 26 34 0.0 0.0 0.00 0.86 0.86 92 1010.7
20260509163703 26 34 0.0 3.2 0.00 0.86 0.86 92 1010.7
20260509163159 26 21 0.0 4.8 0.00 0.84 0.84 92 1010.7
20260509162657 26 11 1.6 6.4 0.00 0.84 0.84 92 1010.7
20260509162152 26 30 1.6 6.4 1.19 0.81 0.81 92 1010.7
20260509161648 26 57 0.0 0.0 0.00 0.81 0.81 92 1011.0
20260509161144 26 62 1.6 4.8 0.00 0.81 0.81 93 1011.0
20260509160640 26 65 1.6 6.4 0.00 0.79 0.79 93 1011.0
20260509160135 26 37 0.0 0.0 0.00 0.79 0.79 93 1011.0
20260509155632 26 41 0.0 0.0 0.00 0.79 0.79 93 1011.0
20260509155128 26 44 0.0 0.0 0.00 0.79 0.79 93 1011.4
20260509154624 25 46 0.0 0.0 0.00 0.79 0.79 93 1011.4
20260509154121 25 52 0.0 0.0 0.00 0.79 0.79 93 1011.4
20260509153618 25 52 0.0 0.0 0.00 0.79 0.79 93 1011.4
20260509153115 25 53 0.0 0.0 0.00 0.79 0.79 92 1011.4
20260509152611 25 71 0.0 0.0 0.00 0.79 0.79 92 1011.4
20260509152108 25 54 0.0 0.0 0.00 0.79 0.79 92 1011.4
20260509151604 25 24 0.0 3.2 0.00 0.79 0.79 92 1011.0
20260509151102 25 35 0.0 0.0 1.19 0.76 0.76 92 1011.0
20260509150559 25 46 0.0 0.0 0.00 0.76 0.76 92 1011.4
20260509150058 25 39 0.0 0.0 0.00 0.76 0.76 92 1011.4
20260509145553 25 61 0.0 0.0 0.00 0.76 0.76 92 1011.4
20260509145049 25 43 0.0 0.0 0.00 0.76 0.76 92 1011.4
20260509144546 25 33 0.0 0.0 0.00 0.76 0.76 92 1011.4
20260509144043 25 48 0.0 0.0 0.00 0.76 0.76 92 1011.4
20260509143540 25 103 0.0 0.0 0.00 0.76 0.76 92 1011.4
20260509143038 25 60 0.0 0.0 0.00 0.76 0.76 92 1011.4
20260509142533 25 73 0.0 0.0 0.00 0.76 0.76 92 1011.4
20260509142029 25 47 0.0 0.0 0.00 0.76 0.76 92 1011.4
20260509141525 25 60 0.0 0.0 0.00 0.76 0.76 92 1011.4
20260509141022 25 70 0.0 0.0 1.19 0.74 0.74 92 1011.7
20260509140519 25 66 0.0 0.0 0.00 0.71 0.71 92 1011.7
20260509140017 25 29 0.0 0.0 0.00 0.66 0.66 91 1011.7
20260509135514 25 49 0.0 0.0 1.19 0.61 0.61 91 1011.7
20260509135011 25 56 0.0 0.0 0.00 0.58 0.58 91 1011.7
20260509134508 25 72 4.8 6.4 1.19 0.56 0.56 92 1011.7
20260509134006 26 48 0.0 0.0 1.19 0.48 0.48 92 1012.1
20260509133502 26 54 0.0 0.0 0.00 0.46 0.46 92 1012.1
20260509133000 26 57 1.6 4.8 0.00 0.41 0.41 92 1012.1
20260509132458 26 58 0.0 4.8 1.19 0.33 0.33 92 1012.1
20260509131955 26 75 4.8 8.0 1.19 0.25 0.25 92 1012.4
20260509131452 26 70 6.4 8.0 1.19 0.13 0.13 92 1012.1
20260509130949 26 64 3.2 6.4 0.00 0.10 0.10 92 1012.1
20260509130444 26 51 0.0 0.0 1.19 0.03 0.03 92 1012.1
20260509125942 26 25 0.0 0.0 1.19 0.99 0.99 91 1012.1
20260509125438 26 78 0.0 4.8 1.19 0.89 0.89 91 1012.4
20260509124934 26 52 0.0 6.4 0.00 0.89 0.89 91 1012.4
20260509124431 26 33 0.0 0.0 0.00 0.86 0.86 91 1012.4
20260509123929 26 49 0.0 0.0 0.00 0.86 0.86 91 1012.4
20260509123426 26 35 1.6 3.2 0.00 0.86 0.86 91 1012.1
20260509122922 26 38 0.0 0.0 0.00 0.86 0.86 91 1012.1
20260509122419 26 42 0.0 0.0 0.00 0.86 0.86 91 1012.1
20260509121915 26 65 0.0 0.0 0.00 0.86 0.86 91 1012.1
20260509121413 26 140 1.6 6.4 0.00 0.86 0.86 91 1012.1
20260509120911 26 95 0.0 6.4 0.00 0.86 0.86 91 1012.1
20260509120408 26 82 0.0 0.0 0.00 0.86 0.86 92 1012.4
20260509115906 26 123 0.0 0.0 0.00 0.86 0.86 92 1012.4
20260509115403 26 216 0.0 3.2 0.00 0.86 0.86 92 1012.7
20260509114901 26 82 0.0 0.0 0.00 0.86 0.86 91 1012.4
20260509114359 26 54 0.0 0.0 0.00 0.86 0.86 91 1012.4
20260509113858 26 31 0.0 0.0 0.00 0.86 0.86 91 1012.4
20260509113355 26 71 0.0 0.0 0.00 0.86 0.86 91 1012.4
20260509112851 26 22 0.0 0.0 0.00 0.86 0.86 91 1012.4
20260509112348 26 104 0.0 0.0 0.00 0.86 0.86 91 1012.4
20260509111846 26 82 0.0 0.0 0.00 0.86 0.86 91 1012.4
20260509111342 26 347 0.0 0.0 0.00 0.86 0.86 91 1012.4
20260509110840 26 98 0.0 0.0 0.00 0.86 0.86 91 1012.4
20260509110336 26 77 0.0 0.0 0.00 0.86 0.86 91 1012.4
20260509105835 26 129 0.0 0.0 0.00 0.86 0.86 91 1012.4
20260509105332 26 114 0.0 0.0 0.00 0.86 0.86 91 1012.4
20260509104829 26 112 0.0 0.0 0.00 0.86 0.86 91 1012.4
20260509104325 26 70 0.0 0.0 0.00 0.86 0.86 91 1012.4
20260509103823 26 43 0.0 0.0 0.00 0.86 0.86 91 1012.4
20260509103320 25 53 0.0 0.0 0.00 0.86 0.86 91 1012.1
20260509102820 26 49 0.0 0.0 0.00 0.86 0.86 91 1012.1
20260509102316 26 53 0.0 0.0 0.00 0.86 0.86 91 1012.4
20260509101812 26 57 0.0 0.0 0.00 0.86 0.86 90 1012.4
20260509101308 26 66 0.0 0.0 0.00 0.86 0.86 90 1012.4
20260509100806 26 82 0.0 0.0 0.00 0.86 0.86 90 1012.4
20260509100303 25 86 0.0 0.0 0.00 0.86 0.86 90 1012.4
20260509095759 25 56 0.0 0.0 0.00 0.86 0.86 90 1012.1
20260509095257 26 162 3.2 8.0 0.00 0.86 0.86 90 1012.4
20260509094754 26 119 0.0 3.2 0.00 0.86 0.86 91 1012.4
20260509094250 26 116 0.0 4.8 0.00 0.86 0.86 91 1012.4
20260509093748 26 154 1.6 4.8 0.00 0.86 0.86 91 1012.4
20260509093245 26 147 1.6 4.8 0.00 0.86 0.86 92 1012.4
20260509092744 26 79 0.0 0.0 0.00 0.86 0.86 92 1012.4
20260509092241 26 140 0.0 3.2 0.00 0.86 0.86 92 1012.4
20260509091739 26 120 0.0 0.0 0.00 0.86 0.86 92 1012.4
20260509091235 26 85 0.0 0.0 0.00 0.86 0.86 92 1012.4
20260509090733 26 60 0.0 0.0 0.00 0.86 0.86 92 1012.4
20260509090230 26 57 0.0 0.0 0.00 0.86 0.86 92 1012.1
20260509085728 26 44 0.0 0.0 0.00 0.86 0.86 91 1012.1
20260509085225 26 48 0.0 0.0 0.00 0.84 0.84 91 1012.1
20260509084721 26 73 0.0 0.0 0.00 0.84 0.84 91 1012.1
20260509084218 26 40 0.0 0.0 0.00 0.84 0.84 91 1012.1
20260509083716 26 70 0.0 0.0 0.00 0.84 0.84 91 1012.1
20260509083212 26 62 0.0 0.0 1.19 0.81 0.81 90 1011.7
20260509082709 26 67 0.0 0.0 0.00 0.81 0.81 90 1011.7
20260509082206 26 83 0.0 0.0 0.00 0.81 0.81 90 1012.1
20260509081702 26 17 0.0 0.0 0.00 0.81 0.81 90 1012.1
20260509081200 26 32 0.0 0.0 0.00 0.81 0.81 90 1012.1
20260509080658 26 73 0.0 0.0 0.00 0.81 0.81 89 1012.1
20260509080155 27 241 1.6 6.4 0.00 0.81 0.81 90 1012.1
20260509075654 26 96 3.2 6.4 0.00 0.79 0.79 90 1012.1
20260509075151 26 91 8.0 11.3 0.00 0.76 0.76 90 1012.1
20260509074648 27 98 11.3 14.5 0.00 0.76 0.76 90 1011.7
20260509074144 27 89 9.7 14.5 0.00 0.66 0.66 90 1011.7
20260509073641 27 70 6.4 9.7 0.00 0.66 0.66 90 1011.4
20260509073137 27 76 0.0 0.0 0.00 0.66 0.66 90 1011.4
20260509072634 27 49 0.0 3.2 0.00 0.64 0.64 90 1011.4
20260509072131 27 70 6.4 9.7 0.00 0.64 0.64 90 1011.0
20260509071628 27 74 4.8 11.3 0.00 0.64 0.64 90 1011.0
20260509071125 27 92 0.0 0.0 0.00 0.64 0.64 90 1011.0
20260509070622 27 84 0.0 0.0 0.00 0.64 0.64 90 1011.0
20260509070118 26 312 0.0 0.0 0.00 0.64 0.64 90 1011.0
20260509065614 26 225 0.0 3.2 0.00 0.64 0.64 90 1011.0
20260509065110 26 114 0.0 0.0 0.00 0.64 0.64 90 1011.0
20260509064608 26 66 0.0 0.0 0.00 0.64 0.64 90 1010.7
20260509064106 26 63 0.0 0.0 0.00 0.64 0.64 90 1010.7
20260509063602 26 47 0.0 0.0 0.00 0.64 0.64 89 1010.4
20260509063059 26 42 0.0 0.0 0.00 0.64 0.64 89 1010.4
20260509062556 26 59 0.0 0.0 0.00 0.64 0.64 89 1010.4
20260509062053 26 27 0.0 0.0 0.00 0.64 0.64 89 1010.4
20260509061550 27 44 0.0 0.0 0.00 0.64 0.64 88 1010.4
20260509061047 27 45 0.0 0.0 0.00 0.64 0.64 88 1010.4
20260509060545 27 358 0.0 0.0 0.00 0.64 0.64 88 1010.0
20260509060040 26 14 0.0 0.0 0.00 0.64 0.64 88 1010.0
20260509055536 27 105 0.0 0.0 0.00 0.64 0.64 88 1010.0
20260509055032 27 165 0.0 0.0 0.00 0.64 0.64 88 1010.0
20260509054529 27 77 0.0 0.0 0.00 0.64 0.64 89 1010.0
20260509054027 26 156 0.0 4.8 0.00 0.64 0.64 89 1009.7
20260509053525 27 188 1.6 6.4 0.00 0.64 0.64 89 1009.7
20260509053021 26 130 0.0 4.8 0.00 0.64 0.64 90 1009.7
20260509052519 26 162 1.6 4.8 0.00 0.64 0.64 90 1009.7
20260509052017 27 154 0.0 1.6 0.00 0.64 0.64 90 1009.7
20260509051515 27 119 0.0 3.2 0.00 0.64 0.64 90 1009.7
20260509051012 26 111 0.0 0.0 0.00 0.64 0.64 90 1009.7
20260509050508 26 92 0.0 0.0 0.00 0.64 0.64 90 1009.7
20260509050005 26 158 1.6 6.4 0.00 0.64 0.64 90 1009.7
20260509045502 26 172 0.0 4.8 0.00 0.64 0.64 90 1009.7
20260509044959 26 33 0.0 0.0 0.00 0.64 0.64 90 1009.7
20260509044457 26 147 0.0 0.0 0.00 0.64 0.64 90 1009.3
20260509043954 26 97 0.0 0.0 1.19 0.61 0.61 90 1009.3
20260509043449 26 99 0.0 0.0 0.00 0.61 0.61 90 1009.3
20260509042945 26 122 0.0 0.0 0.00 0.61 0.61 89 1009.3
20260509042443 26 226 0.0 3.2 0.00 0.61 0.61 88 1009.3
20260509041938 26 76 0.0 0.0 0.00 0.61 0.61 89 1009.0
20260509041435 26 113 1.6 4.8 0.00 0.61 0.61 89 1009.0
20260509040934 26 150 3.2 8.0 0.00 0.61 0.61 89 1009.0
20260509040431 27 165 1.6 8.0 1.19 0.58 0.58 88 1009.0
20260509035928 28 93 0.0 3.2 2.39 0.43 0.43 86 1009.3
20260509035425 30 113 4.8 12.9 1.19 0.13 0.13 81 1009.0
20260509034921 30 87 1.6 6.4 0.00 0.13 0.13 81 1008.7
20260509034419 30 51 0.0 0.0 0.00 0.13 0.13 80 1008.7
20260509033916 30 187 3.2 8.0 0.00 0.13 0.13 77 1008.7
20260509033413 31 71 0.0 3.2 0.00 0.13 0.13 76 1008.7
20260509032909 31 127 3.2 6.4 0.00 0.13 0.13 75 1009.0
20260509032407 30 140 1.6 8.0 0.00 0.13 0.13 78 1008.7
20260509031905 30 164 0.0 3.2 0.00 0.13 0.13 80 1009.0
20260509031402 29 175 3.2 6.4 0.00 0.13 0.13 81 1009.0
20260509030859 29 214 4.8 6.4 0.00 0.13 0.13 82 1009.0
20260509030357 29 160 1.6 6.4 0.00 0.13 0.13 83 1009.0
20260509025854 28 166 3.2 6.4 0.00 0.13 0.13 82 1009.0
20260509025349 29 115 0.0 1.6 0.00 0.13 0.13 82 1009.0
20260509024845 29 102 0.0 0.0 0.00 0.13 0.13 81 1009.0
20260509024341 29 122 1.6 4.8 0.00 0.13 0.13 81 1009.0
20260509023838 29 108 1.6 4.8 0.00 0.13 0.13 81 1009.3
20260509023336 30 125 3.2 8.0 0.00 0.13 0.13 81 1009.3
20260509022832 30 78 0.0 6.4 0.00 0.13 0.13 81 1009.3
20260509022330 30 79 1.6 4.8 0.00 0.13 0.13 80 1009.3
20260509021826 30 111 3.2 4.8 0.00 0.13 0.13 81 1009.3
20260509021323 30 154 3.2 8.0 0.00 0.13 0.13 81 1009.7
20260509020821 30 88 1.6 8.0 0.00 0.13 0.13 83 1009.7
20260509020319 30 87 4.8 9.7 0.00 0.13 0.13 84 1009.3
20260509015816 29 82 1.6 4.8 0.00 0.13 0.13 82 1009.3
20260509015314 30 90 6.4 9.7 0.00 0.10 0.10 81 1009.7
20260509014811 31 88 9.7 14.5 1.19 0.08 0.08 75 1009.7
20260509014308 33 77 8.0 11.3 0.00 0.08 0.08 70 1009.3
20260509013804 34 74 6.4 8.0 0.00 0.08 0.08 67 1009.3
20260509013300 33 80 3.2 8.0 0.00 0.08 0.08 67 1009.3
20260509012757 33 82 4.8 9.7 0.00 0.08 0.08 68 1009.7
20260509012254 33 83 4.8 8.0 0.00 0.08 0.08 70 1009.7
20260509011751 33 93 8.0 9.7 0.00 0.08 0.08 67 1009.7
20260509011248 33 86 6.4 9.7 0.00 0.08 0.08 68 1010.0
20260509010746 33 96 3.2 9.7 0.00 0.08 0.08 69 1010.0
20260509010242 32 94 3.2 9.7 0.00 0.08 0.08 71 1010.0
20260509005740 32 89 9.7 12.9 0.00 0.08 0.08 70 1010.0
20260509005237 32 87 8.0 9.7 0.00 0.08 0.08 70 1010.4
20260509004737 32 91 9.7 12.9 0.00 0.08 0.08 70 1010.4
20260509004235 32 74 0.0 0.0 0.00 0.08 0.08 70 1010.4
20260509003733 32 103 1.6 6.4 0.00 0.08 0.08 69 1010.7
20260509003230 33 108 0.0 4.8 0.00 0.08 0.08 67 1010.7
20260509002727 33 154 1.6 6.4 0.00 0.08 0.08 67 1010.4
20260509002225 33 101 4.8 9.7 0.00 0.08 0.08 68 1010.4
20260509001722 32 111 3.2 6.4 0.00 0.08 0.08 69 1010.4
20260509001218 33 131 1.6 8.0 0.00 0.08 0.08 69 1010.7
20260509000716 32 128 1.6 6.4 0.00 0.08 0.08 70 1010.7
20260509000213 32 73 1.6 6.4 0.00 0.08 0.08 71 1010.7
20260508235710 32 216 0.0 3.2 0.00 0.08 0.08 71 1011.0
20260508235206 32 106 9.7 19.3 0.00 0.08 0.08 72 1010.7
20260508234704 32 94 8.0 14.5 0.00 0.08 0.08 74 1010.7
20260508234200 32 95 8.0 9.7 0.00 0.08 0.08 74 1011.0
20260508233700 31 94 11.3 14.5 0.00 0.08 0.08 75 1011.0
20260508233157 32 95 9.7 14.5 0.00 0.08 0.08 74 1011.4
20260508232654 32 83 11.3 14.5 0.00 0.08 0.08 73 1011.0
20260508232150 32 86 9.7 12.9 0.00 0.08 0.08 74 1011.0
20260508231649 31 86 9.7 12.9 0.00 0.08 0.08 76 1011.0
20260508231145 31 83 9.7 11.3 0.00 0.08 0.08 76 1011.0
20260508230642 31 83 9.7 12.9 0.00 0.08 0.08 76 1011.0
20260508230138 31 83 6.4 9.7 0.00 0.08 0.08 77 1011.4
20260508225637 31 85 9.7 11.3 0.00 0.08 0.08 77 1011.4
20260508225132 31 90 9.7 14.5 0.00 0.08 0.08 79 1011.4
20260508224630 30 90 8.0 9.7 0.00 0.08 0.08 80 1011.4